Weather in Whitley Bay

United Kingdom     55°02′07″N   1°25′51″W
temp.,
°C
wind,
m/s
gust,
m/s
humid.,
%
clouds,
%
prec.,
mm/h
press.,
hPa
HPBL,
m
2 march, tue
tue200:00+4sse249111 0.0 1033216
03:00+3ssw138735 0.0 1032192
06:00+2s138517 0.0 1032177
09:00+3sse23790 0.0 1032313
12:00+6se23664 0.0 1032476
15:00+7ese236410 0.0 1030418
18:00+5ese23825 0.0 1030213
21:00+4se12900 0.0 103068
3 march, wed
wed300:00+3ene00950 0.0 103037
03:00+3nw119711 0.0 102835
06:00+3nnw129537 0.0 102981
09:00+4n128799 0.0 1029248
12:00+5n1278100 0.0 1028477
15:00+5nne2376100 0.0 1027567
18:00+4n3479100 0.0 1027526
21:00+3n3579100 0.0 1027598
4 march, thu
thu400:00+3n4575100 0.1 1027725
03:00+4nne3674100 0.1 1027767
06:00+4nne3777100 0.2 1027755
09:00+5n4884100 0.1 1027683
12:00+5nne5874100 0.4 1028815
15:00+4nne676394 0.1 10291171
18:00+4nne576497 0.1 10301195
21:00+4nne5763100 0.1 10311200
5 march, fri
fri500:00+3nne4663100 0.1 10321113
03:00+3nne4563100 0.1 10321010
06:00+3n3563100 0.1 1032956
09:00+3nne3561100 0.0 10331030
12:00+4nne3358100 0.1 10341039
15:00+4nne2354100 0.0 10341055
18:00+3ne115975 0.0 1034177
21:00+3s11620 0.0 103594
6 march, sat
sat600:00+2sw226732 0.0 1036100
03:00+1wsw227128 0.0 103594
06:00+1wsw127314 0.0 103567
09:00+3wsw23640 0.0 1035231
12:00+6sw24470 0.0 1035823
15:00+8wnw24470 0.0 1033948
18:00+5wnw47670 0.0 1031468
21:00+3w36710 0.0 1031306